Home   Weather   Schweinfurt   Past weeks

Flag for Germany Past Weather in Schweinfurt, Bavaria, Germany — Yesterday and Last 2 Weeks

Now
41 °F

Mostly cloudy.


Feels Like: 41 °F
Forecast: 39 / 52 °F
Wind: No wind

Location: Illesheim

Current Time: Apr 27, 2017 at 3:37:17 am

Latest Report: Apr 27, 2017 at 1:58 am


Visibility: N/A

Pressure: 29.93 "Hg

Humidity: 100%

Dew Point: 41 °F

Location of SchweinfurtLocation

Past Weather in Schweinfurt — Graph

°F

Schweinfurt Temperature Yesterday

Maximum temperature yesterday: 46 °F (at 4:58 pm)
Minimum temperature yesterday: 37 °F (at 4:49 am)
Average temperature yesterday: 40 °F

High & Low Weather Summary for the Past Weeks

 TemperatureHumidityPressure
High63 °F (Apr 12, 2:58 pm)100% (Apr 15, 8:27 pm)30.62 "Hg (Apr 15, 8:27 pm)
Low21 °F (Apr 20, 5:58 am)36% (Apr 24, 5:58 pm)29.71 "Hg (Apr 25, 5:58 am)
Average43 °F76%30.12 "Hg
* Reported Apr 12 1:58 am — Apr 27 1:58 am, Schweinfurt, Weather by CustomWeather, © 2017

Note: Actual official high and low records may vary slightly from our data, if they occured in-between our weather recording intervals... More about our weather records

Advertising

Schweinfurt Weather History for the Previous 24 Hours

Scroll right to see more
 ConditionsComfort  
Time TempWeatherWind HumidityBarometerVisibility
1:58 am
Thu, Apr 27
41 °FMostly cloudy.No wind100%29.93 "HgN/A
12:58 am41 °FMostly cloudy.No wind97%29.94 "HgN/A
11:58 pm
Wed, Apr 26
41 °FOvercast.No wind94%29.93 "HgN/A
10:58 pm41 °FMostly cloudy.No wind93%29.94 "HgN/A
9:58 pm42 °FOvercast.No wind80%29.93 "HgN/A
8:58 pm43 °FMostly cloudy.No wind72%29.91 "HgN/A
7:58 pm43 °FOvercast.No wind77%29.91 "HgN/A
6:58 pm43 °FOvercast.5 mph79%29.91 "HgN/A
5:58 pm43 °FOvercast.7 mph81%29.91 "HgN/A
4:58 pm46 °FBroken clouds.No wind71%29.89 "HgN/A
3:58 pm46 °FPartly sunny.3 mph65%29.89 "HgN/A
2:58 pm45 °FScattered clouds.5 mph81%29.89 "HgN/A
2:27 pm43 °FCloudy.7 mph81%29.86 "Hg6 mi
2:14 pm43 °FLight rain. Mostly cloudy.8 mph81%29.85 "HgN/A
1:58 pm43 °FMostly cloudy.5 mph81%29.90 "HgN/A
12:58 pm42 °FPartly sunny.8 mph85%29.89 "HgN/A
12:39 pm41 °FCloudy.6 mph87%29.86 "HgN/A
12:22 pm41 °FPartly sunny.6 mph93%29.85 "HgN/A
11:46 am39 °FLight rain. Fog.7 mph100%29.86 "Hg3 mi
11:43 am39 °FLight rain. Fog.8 mph100%29.86 "Hg4 mi
11:29 am39 °FLight rain. Fog.8 mph100%29.85 "Hg4 mi
11:12 am39 °FFog.8 mph100%29.85 "Hg4 mi
10:58 am39 °FFog.8 mph100%29.88 "Hg4 mi
10:46 am39 °FFog.6 mph93%29.84 "Hg4 mi
9:58 am38 °FLight rain. Low clouds.6 mph98%29.87 "HgN/A
8:58 am38 °FLight rain. Low clouds.6 mph98%29.87 "HgN/A
8:19 am37 °FLight rain. Fog.No wind100%29.82 "HgN/A
8:12 am37 °FLow clouds.No wind100%29.82 "HgN/A
7:58 am37 °FLight rain. Fog.5 mph98%29.85 "Hg6 mi
7:43 am37 °FLight rain. Fog.3 mph100%29.82 "Hg6 mi
7:01 am37 °FLight rain. Fog.3 mph100%29.81 "Hg5 mi
6:00 am37 °FPassing clouds.3 mph100%29.80 "HgN/A
5:58 am38 °FClear.3 mph99%29.83 "HgN/A
4:58 am37 °FClear.No wind100%29.82 "HgN/A
4:49 am37 °FPassing clouds.No wind100%29.80 "HgN/A
3:58 am39 °FPassing clouds.3 mph94%29.84 "HgN/A
Weather by CustomWeather, © 2017

See weather overviewHow to use our weather pages